Tracking 28565 objects as of 3-Mar-2024
HD Live streaming from Space Station
objects crossing your sky now

STARLINK-5986

Track STARLINK-5986 now!
10-day predictions
STARLINK-5986 is classified as:


NORAD ID: 56452
Int'l Code: 2023-064E
Perigee: 577.1 km
Apogee: 581.3 km
Inclination: 70.0 °
Period: 96.1 minutes
Semi major axis: 6950 km
RCS: Unknown
Launch date: May 10, 2023
Source: United States (US)
Launch site: AIR FORCE WESTERN TEST RANGE (AFWTR)
Your satellite tracking list
Your tracking list is empty




NASA's NSSDC Master Catalog

Two Line Element Set (TLE):
1 56452U 23064E   24062.80108071 -.00000366  00000-0 -22917-4 0  9998
2 56452  70.0006 202.5609 0003042 271.9406  88.1404 14.98327493 44866
Source of the keplerian elements: AFSPC